SCD 1 1 22490U 93009B 26038.16043539 .00000572 00000+0 10515-3 0 9996 2 22490 24.9697 290.3778 0041900 201.6099 292.5274 14.46049467742271 TECHSAT 1B (GO-32) 1 25397U 98043D 26037.90281677 .00000136 00000+0 79038-4 0 9998 2 25397 98.9987 27.4306 0000773 178.6118 181.5062 14.24397158432780 SCD 2 1 25504U 98060A 26037.40143605 .00000626 00000+0 12389-3 0 9999 2 25504 24.9939 158.6781 0016701 180.2442 229.2745 14.45463264441386 DLR-TUBSAT 1 25757U 99029B 26038.22681058 .00000220 00000+0 65753-4 0 9999 2 25757 98.6628 29.5027 0014770 29.4762 330.7263 14.52384918414380 TERRA 1 25994U 99068A 26038.24054179 .00000642 00000+0 14007-3 0 9998 2 25994 97.9658 92.8284 0000943 283.6041 148.8653 14.60981450390632 MAROC-TUBSAT 1 27004U 01056D 26038.04214410 -.00000020 00000+0 29906-4 0 9992 2 27004 99.7963 212.4838 0020548 115.4663 354.7799 13.70256374208362 AQUA 1 27424U 02022A 26038.30497272 .00001568 00000+0 32334-3 0 9995 2 27424 98.4122 5.1299 0001557 54.1728 54.4279 14.61901212264299 IRS-P6 (RESOURCESAT-1) 1 28051U 03046A 26038.29570877 .00000371 00000+0 13824-3 0 9994 2 28051 98.2098 81.0608 0064573 13.1456 76.3997 14.36098373161881 SHIYAN-1 (SY-1) 1 28220U 04012A 26038.13942304 .00018961 00000+0 65325-3 0 9994 2 28220 97.8831 108.0536 0007069 115.6290 244.5680 15.30055451191189 AURA 1 28376U 04026A 26038.29116476 .00001420 00000+0 29884-3 0 9993 2 28376 98.3263 353.8092 0001283 66.7709 293.3626 14.61074310147244 IRS-P5 (CARTOSAT-1) 1 28649U 05017A 26038.14022936 .00002396 00000+0 24983-3 0 9996 2 28649 97.5448 67.0473 0002470 109.0958 251.0529 14.90650498124445 SINAH 1 1 28893U 05043D 26038.27322499 .00000647 00000+0 13260-3 0 9990 2 28893 98.2638 171.9966 0013758 327.3144 32.7206 14.64038244 81516 RESURS-DK 1 1 29228U 06021A 26038.24877116 .00004154 00000+0 24363-3 0 9991 2 29228 69.9349 315.7547 0004745 207.2880 152.8037 15.12566022 82921 ARIRANG-2 (KOMPSAT-2) 1 29268U 06031A 26038.29448123 .00000326 00000+0 69810-4 0 9997 2 29268 97.8278 229.0173 0015507 122.5891 359.9147 14.64559596 42468 LAPAN-TUBSAT 1 29709U 07001A 26038.28544073 .00001606 00000+0 19120-3 0 9995 2 29709 98.1305 34.6248 0010783 247.1467 112.8609 14.85784778 31866 HAIYANG-1B 1 31113U 07010A 26038.02186432 .00000171 00000+0 80805-4 0 9995 2 31113 98.3383 24.9950 0012593 223.9536 136.0647 14.30989204982011 COSMO-SKYMED 1 1 31598U 07023A 26038.30640975 .00004532 00000+0 40619-3 0 9997 2 31598 97.8857 229.1015 0000949 74.3478 285.7848 14.96293506 10364 TERRASAR-X 1 31698U 07026A 26037.57491706 .00002542 00000+0 12424-3 0 9997 2 31698 97.4465 47.1431 0001935 86.0363 274.1093 15.19146011 33391 WORLDVIEW-1 (WV-1) 1 32060U 07041A 26038.30685050 .00010765 00000+0 44744-3 0 9993 2 32060 97.3802 159.9425 0001078 247.2125 112.8998 15.23973611 23096 YAOGAN-3 1 32289U 07055A 26038.29335082 .00002250 00000+0 23790-3 0 9994 2 32289 97.8312 69.4050 0001775 102.0392 258.1025 14.90201417986518 COSMO-SKYMED 2 1 32376U 07059A 26038.27077846 .00000773 00000+0 10366-3 0 9997 2 32376 97.8841 223.7506 0001541 83.1639 276.9750 14.82155355982752 RADARSAT-2 1 32382U 07061A 26038.31179124 .00000098 00000+0 55068-4 0 9993 2 32382 98.5810 47.0833 0001140 81.6049 278.5263 14.29979796947398 CARTOSAT-2A 1 32783U 08021A 26038.29810654 .00001343 00000+0 18817-3 0 9996 2 32783 97.7835 91.3315 0011966 166.8860 193.2665 14.79043386959600 HUANJING 1A (HJ-1A) 1 33320U 08041A 26038.28625234 .00001595 00000+0 19907-3 0 9993 2 33320 97.6601 29.2491 0018241 200.9188 159.1282 14.83618513939147 HUANJING 1B (HJ-1B) 1 33321U 08041B 26038.26709321 .00002211 00000+0 27543-3 0 9993 2 33321 97.6448 32.7766 0035010 249.4140 110.3318 14.83022307939150 GEOEYE 1 1 33331U 08042A 26038.28779175 .00000779 00000+0 15516-3 0 9995 2 33331 98.1265 113.8597 0004937 102.4039 257.7717 14.64727839931136 THEOS 1 33396U 08049A 26038.32925300 -.00000003 00000+0 18554-4 0 9998 2 33396 98.5765 99.7249 0001156 83.6668 276.4641 14.20111238899533 COSMO-SKYMED 3 1 33412U 08054A 26038.29090498 .00002316 00000+0 16324-3 0 9990 2 33412 97.8426 254.6506 0016093 351.1991 8.8950 15.05951652937386 YAOGAN-4 1 33446U 08061A 26038.28861430 .00001427 00000+0 18240-3 0 9997 2 33446 97.9227 332.8553 0015426 129.8997 230.3575 14.82883660926413 GOSAT (IBUKI) 1 33492U 09002A 26038.25163964 .00001189 00000+0 21809-3 0 9998 2 33492 98.0762 151.0687 0001526 93.2768 266.8611 14.67549014912409 DEIMOS-1 1 35681U 09041A 26038.29084955 .00001410 00000+0 21633-3 0 9991 2 35681 97.7204 201.2825 0000322 143.2960 216.8272 14.75065376887731 DUBAISAT-1 1 35682U 09041B 26038.31455846 .00002029 00000+0 31017-3 0 9990 2 35682 97.9827 173.1809 0011512 124.5193 235.7105 14.74814177885954 OCEANSAT-2 1 35931U 09051A 26038.23702556 -.00000169 00000+0 -90024-4 0 9991 2 35931 98.2263 38.1187 0015795 242.6138 117.3421 13.99641094861150 WORLDVIEW-2 (WV-2) 1 35946U 09055A 26038.24766610 .00000232 00000+0 91589-4 0 9999 2 35946 98.4724 113.5431 0003073 241.8731 118.2146 14.37826967856971 SMOS 1 36036U 09059A 26038.09252419 .00000489 00000+0 16986-3 0 9995 2 36036 98.4407 227.3131 0001253 86.6740 273.4591 14.39735736854739 YAOGAN-7 1 36110U 09069A 26038.23446716 .00000979 00000+0 14275-3 0 9993 2 36110 98.0256 284.7789 0026033 97.7804 262.6363 14.77838494870432 TANDEM-X 1 36605U 10030A 26037.57491597 .00002151 00000+0 10560-3 0 9992 2 36605 97.4465 47.1416 0001904 96.7561 263.3890 15.19145905866818 CARTOSAT-2B 1 36795U 10035A 26038.27893396 .00001189 00000+0 16852-3 0 9998 2 36795 97.7760 90.4466 0010427 250.8569 109.1514 14.78771788840658 YAOGAN-10 1 36834U 10038A 26038.32829109 .00002433 00000+0 29236-3 0 9995 2 36834 97.9109 62.7251 0001500 93.1395 28.3775 14.84886838837930 COSMO-SKYMED 4 1 37216U 10060A 26038.28341248 .00000575 00000+0 78769-4 0 9994 2 37216 97.8834 223.7627 0001377 84.2104 275.9266 14.82153139825320 RESOURCESAT-2 1 37387U 11015A 26038.30423404 -.00000283 00000+0 -10919-3 0 9992 2 37387 98.7785 106.5735 0005106 224.6532 135.4235 14.21454247767723 HAIYANG-2A 1 37781U 11043A 26038.30506115 .00000192 00000+0 23199-3 0 9993 2 37781 99.3402 43.3733 0000937 359.0331 1.0819 13.78711050728785 RASAT 1 37791U 11044D 26038.27594260 .00000752 00000+0 13937-3 0 9990 2 37791 98.0591 131.6852 0019440 242.9032 201.6837 14.68010909774123 SRMSAT 1 37841U 11058D 26037.29582517 .00000512 00000+0 13390-3 0 9991 2 37841 19.9712 131.7097 0011564 203.5607 189.1597 14.11535751739307 PLEIADES 1A 1 38012U 11076F 26038.26852598 .00000551 00000+0 12830-3 0 9990 2 38012 98.1731 115.1419 0001313 105.0876 347.0271 14.58573703753059 ZIYUAN 1-02C (ZY 1-02C) 1 38038U 11079A 26038.32593829 .00000692 00000+0 24255-3 0 9997 2 38038 98.4233 108.2748 0006043 346.8465 102.3454 14.38091298740546 ARIRANG-3 (KOMPSAT-3) 1 38338U 12025B 26038.28182396 .00000841 00000+0 17718-3 0 9992 2 38338 98.1790 357.9991 0006456 149.8982 210.2592 14.61972878732361 EXACTVIEW-1 (ADS-1B) 1 38709U 12039C 26038.26969475 .00000214 00000+0 11136-3 0 9990 2 38709 98.9626 152.8456 0010932 180.8789 179.2372 14.24937834704205 SPOT 6 1 38755U 12047A 26038.33391831 .00000542 00000+0 12662-3 0 9992 2 38755 98.2280 107.0747 0001176 98.3862 261.7470 14.58517384714124 PLEIADES 1B 1 39019U 12068A 26038.28511021 .00000529 00000+0 12356-3 0 9993 2 39019 98.2069 115.0663 0001429 104.8755 255.2603 14.58557081701911 GOKTURK 2 1 39030U 12073A 26038.28056135 .00000896 00000+0 13897-3 0 9990 2 39030 97.6884 242.1544 0001994 69.2326 290.9098 14.75391823705352 LANDSAT 8 1 39084U 13008A 26038.23990988 .00000568 00000+0 13604-3 0 9998 2 39084 98.1980 110.4548 0001289 93.0229 267.1117 14.57118740678979 SARAL 1 39086U 13009A 26038.29386280 .00000174 00000+0 79846-4 0 9995 2 39086 98.5529 226.4920 0001281 345.8358 14.2790 14.32782178677005 GAOFEN-1 1 39150U 13018A 26038.28806297 -.00000111 00000+0 -86045-5 0 9994 2 39150 97.9232 112.9223 0016801 329.6325 30.3910 14.76493049689071 VNREDSAT 1 1 39160U 13021B 26038.31189328 .00000764 00000+0 15107-3 0 9993 2 39160 97.9275 96.5821 0001466 96.7759 263.3612 14.65029266681279 ARIRANG-5 (KOMPSAT-5) 1 39227U 13042A 26038.27538403 .00002457 00000+0 17980-3 0 9999 2 39227 97.6164 226.7799 0001964 203.5533 156.5603 15.04509152684322 SKYSAT-A 1 39418U 13066C 26038.19760899 .00004382 00000+0 25648-3 0 9993 2 39418 97.4016 91.6822 0022945 47.0829 313.2323 15.12118561668833 DUBAISAT-2 1 39419U 13066D 26038.29012446 .00005456 00000+0 34811-3 0 9998 2 39419 97.4508 31.9945 0013328 114.6597 245.6022 15.09019314666790 GPM-CORE 1 39574U 14009C 26038.27370855 .00010998 00000+0 24549-3 0 9991 2 39574 64.9750 23.3057 0012894 261.5082 98.4597 15.43870740677741 SENTINEL-1A 1 39634U 14016A 26038.15038199 .00000359 00000+0 85775-4 0 9994 2 39634 98.1813 47.5618 0001317 84.0816 276.0534 14.59200961631056 KAZEOSAT 1 1 39731U 14024A 26038.27017837 .00000292 00000+0 10183-3 0 9996 2 39731 98.3339 113.8855 0001080 93.0870 267.0444 14.42067108619834 ALOS-2 1 39766U 14029A 26038.28407829 .00000385 00000+0 58446-4 0 9992 2 39766 97.9218 137.3190 0001394 97.7409 262.3960 14.79491538632376 KAZEOSAT 2 1 40010U 14033A 26038.28452834 .00000943 00000+0 11562-3 0 9994 2 40010 97.5490 244.6792 0009625 35.9980 324.1883 14.85285397629672 HODOYOSHI-4 1 40011U 14033B 26038.31231914 .00000161 00000+0 23297-4 0 9994 2 40011 97.5432 229.4205 0024359 19.3323 340.8812 14.87728358629495 DEIMOS-2 1 40013U 14033D 26038.27520627 .00002854 00000+0 27790-3 0 9995 2 40013 97.6014 277.2095 0002271 71.5140 288.6327 14.93275950618331 HODOYOSHI-3 1 40015U 14033F 26038.29349553 .00001876 00000+0 22356-3 0 9992 2 40015 97.6253 206.6920 0034273 63.5968 296.8759 14.85045809628348 SPOT 7 1 40053U 14034A 26038.25236434 .00000739 00000+0 16055-3 0 9990 2 40053 98.0806 104.0031 0001066 88.5764 271.5560 14.60824447618163 SKYSAT-B 1 40072U 14037D 26038.26058100 .00002756 00000+0 30989-3 0 9990 2 40072 98.3687 349.9846 0005396 355.2997 4.8166 14.87597958626644 WORLDVIEW-3 (WV-3) 1 40115U 14048A 26038.24762535 .00001459 00000+0 17833-3 0 9994 2 40115 97.8691 114.8350 0002216 54.7384 305.4038 14.84761922622622 GAOFEN-2 1 40118U 14049A 26038.30432847 .00000638 00000+0 89821-4 0 9990 2 40118 98.0284 102.5488 0006226 300.6229 59.4369 14.80722302620017 YAOGAN-21 1 40143U 14053A 26038.27921576 .00007877 00000+0 32309-3 0 9991 2 40143 97.1669 84.1370 0008205 181.5058 178.6157 15.24473289635158 YAOGAN-22 1 40275U 14063A 26038.29031767 .00000005 00000+0 13785-3 0 9997 2 40275 100.7479 187.5207 0006796 121.7510 238.4264 13.15525579542736 ASNARO 1 40298U 14070A 26038.30270521 .00013486 00000+0 63732-3 0 9999 2 40298 97.3560 117.8485 0004552 233.7178 126.3637 15.19513570624283 YAOGAN-24 1 40310U 14072A 26038.34419799 .00001578 00000+0 23575-3 0 9992 2 40310 98.1263 174.7509 0012452 324.5574 35.4807 14.76164974604563 CBERS 4 1 40336U 14079A 26038.32231755 .00000007 00000+0 16853-4 0 9997 2 40336 98.3087 99.3742 0001066 44.8121 315.3151 14.35522076585327 YAOGAN-26 1 40362U 14088A 26038.31196162 .00029616 00000+0 69887-3 0 9998 2 40362 97.0660 42.0681 0006148 137.4485 222.7240 15.41814493617651 SMAP 1 40376U 15003A 26038.23319385 .00000786 00000+0 16098-3 0 9999 2 40376 98.1305 47.1503 0001446 89.7192 270.4176 14.63436992588611 KOMPSAT-3A 1 40536U 15014A 26038.27536773 .00035127 00000+0 64133-3 0 9995 2 40536 97.6840 20.8697 0062950 290.6097 68.8408 15.47107148601684 SENTINEL-2A 1 40697U 15028A 26038.27769686 .00000121 00000+0 62642-4 0 9999 2 40697 98.5622 115.0230 0001104 97.6042 262.5267 14.30821159555151 GAOFEN-8 1 40701U 15030A 26038.30848142 .00024275 00000+0 58664-3 0 9991 2 40701 97.6918 224.3119 0009478 303.9299 56.1045 15.41116236591410 CARBONITE 1 (CBNT-1) 1 40718U 15032D 26038.32934330 .00002455 00000+0 30726-3 0 9993 2 40718 97.6436 221.9010 0014782 6.2264 353.9131 14.83070405570092 YAOGAN-27 1 40878U 15040A 26038.26081552 .00000409 00000+0 11891-2 0 9999 2 40878 100.1069 30.3380 0008418 150.2984 209.8609 13.16064562500578 GAOFEN-9 01 1 40894U 15047A 26038.29165022 .00001516 00000+0 19353-3 0 9994 2 40894 97.6470 79.7904 0026879 203.5042 156.4945 14.82603262560946 YAOGAN-28 1 41026U 15064A 26038.33504182 .00013171 00000+0 52227-3 0 9997 2 41026 97.2852 179.5865 0009990 292.8934 67.1249 15.25459414570879 YAOGAN-29 1 41038U 15069A 26038.29669749 .00001108 00000+0 14316-3 0 9995 2 41038 98.0173 66.6402 0002874 86.3884 273.7657 14.82961494551374 KENT RIDGE 1 1 41167U 15077B 26037.48159942 .00007668 00000+0 29145-3 0 9999 2 41167 14.9789 157.3795 0008506 195.5560 164.4501 15.22178342561149 GAOFEN-4 1 41194U 15083A 26038.28863506 -.00000331 00000+0 00000+0 0 9999 2 41194 0.3150 83.7823 0003149 84.3929 178.8091 1.00269570 37221 JASON-3 1 41240U 16002A 26038.29390136 -.00000050 00000+0 47472-4 0 9995 2 41240 66.0419 38.9231 0007970 275.2104 84.8005 12.87627230470520 SENTINEL-3A 1 41335U 16011A 26038.26583875 .00000172 00000+0 89030-4 0 9991 2 41335 98.6292 107.4862 0001128 105.4972 254.6334 14.26735082519530 ZIYUAN 3-02 (ZY 3-02) 1 41556U 16033A 26038.28653307 .00009681 00000+0 43714-3 0 9992 2 41556 97.3951 116.4884 0013605 48.3373 311.9025 15.21098188538237 CARTOSAT-2C 1 41599U 16040A 26038.24199341 .00007218 00000+0 34603-3 0 9997 2 41599 97.4667 99.8850 0008934 228.1802 131.8670 15.19177916533986 SKYSAT-C1 1 41601U 16040C 26038.17591019 .00011981 00000+0 36774-3 0 9994 2 41601 96.9752 77.0302 0004165 113.6794 246.4887 15.33866153537924 LAPAN-A3 1 41603U 16040E 26038.26564410 .00005176 00000+0 16902-3 0 9991 2 41603 97.1465 38.7961 0012277 116.7994 243.4505 15.32105406534910 GAOFEN-3 1 41727U 16049A 26038.27784584 .00000254 00000+0 90347-4 0 9992 2 41727 98.4048 48.0054 0001073 105.9371 254.1937 14.42208787499921 SKYSAT-C4 1 41771U 16058B 26038.14592913 .00019816 00000+0 43181-3 0 9997 2 41771 96.9324 65.6475 0002789 65.2685 294.8855 15.44285746525375 SKYSAT-C5 1 41772U 16058C 26038.16721214 .00010897 00000+0 33057-3 0 9999 2 41772 97.0669 84.5470 0004738 102.6239 257.5535 15.34262924523812 SKYSAT-C2 1 41773U 16058D 26038.02416670 .00015857 00000+0 41402-3 0 9996 2 41773 97.0317 65.2078 0004500 137.6460 222.5135 15.38865246525016 SKYSAT-C3 1 41774U 16058E 26038.16815936 .00024084 00000+0 47907-3 0 9998 2 41774 96.9226 74.3560 0002092 80.9893 279.1595 15.46930544525971 ALSAT-1B 1 41785U 16059C 26038.28940464 .00001019 00000+0 16924-3 0 9997 2 41785 97.7805 52.6391 0007957 288.2175 71.8167 14.72154909501468 PATHFINDER 1 1 41787U 16059E 26038.25187053 .00001197 00000+0 21853-3 0 9997 2 41787 97.8161 43.4144 0027096 260.1920 99.6225 14.67460013500656 SCATSAT 1 1 41790U 16059H 26038.14611135 .00001953 00000+0 26462-3 0 9993 2 41790 98.1369 100.5034 0053926 307.9319 51.7025 14.79161996 82361 GOKTURK 1A 1 41875U 16073A 26038.27834432 .00000615 00000+0 12971-3 0 9998 2 41875 98.1397 294.8809 0001320 79.8006 280.3344 14.62793339489833 RESOURCESAT-2A 1 41877U 16074A 26038.28546477 .00000024 00000+0 31098-4 0 9997 2 41877 98.7660 112.7894 0003177 97.4414 262.7124 14.21607435475849 CARTOSAT-2D 1 41948U 17008A 26038.34185558 .00009423 00000+0 45047-3 0 9990 2 41948 97.4293 99.9496 0005064 344.2034 15.9042 15.19208475497860 SENTINEL-2B 1 42063U 17013A 26038.27737634 .00000101 00000+0 55272-4 0 9991 2 42063 98.5622 114.9080 0001088 90.9603 269.1705 14.30820149466060 CARTOSAT-2E 1 42767U 17036C 26038.29277031 .00003557 00000+0 17206-3 0 9991 2 42767 97.4460 100.1141 0004383 41.3148 318.8418 15.19230604478424 FORMOSAT-5 1 42920U 17049A 26038.25798561 .00000328 00000+0 94395-4 0 9996 2 42920 98.2367 116.4151 0012060 121.3262 238.9115 14.50804325447836 SENTINEL-5P 1 42969U 17064A 26038.29617249 .00000131 00000+0 83271-4 0 9996 2 42969 98.7847 341.3980 0001167 84.5254 275.6056 14.19541415431134 SKYSAT-C11 1 42987U 17068A 26038.33752331 .00032802 00000+0 57400-3 0 9991 2 42987 97.4171 182.3666 0000706 74.0147 286.1183 15.50560793463079 SKYSAT-C10 1 42988U 17068B 26038.23637048 .00015124 00000+0 49049-3 0 9996 2 42988 97.4298 174.2284 0001955 88.4479 271.6986 15.32072636462444 SKYSAT-C9 1 42989U 17068C 26038.33619462 .00019019 00000+0 51195-3 0 9990 2 42989 97.4221 174.1182 0008361 241.7329 118.3072 15.37870840462770 SKYSAT-C8 1 42990U 17068D 26038.33004424 .00016814 00000+0 50454-3 0 9995 2 42990 97.4314 173.6499 0002913 108.5834 251.5725 15.34526285462388 SKYSAT-C7 1 42991U 17068E 26038.31399691 .00017028 00000+0 52126-3 0 9993 2 42991 97.4322 174.6274 0006025 202.0872 158.0112 15.33876983462440 SKYSAT-C6 1 42992U 17068F 26038.27334710 .00014949 00000+0 48258-3 0 9990 2 42992 97.4357 174.9441 0001963 170.1124 190.0157 15.32224371462418 CARTOSAT-2F 1 43111U 18004A 26038.32506684 .00003720 00000+0 17945-3 0 9996 2 43111 97.4218 100.0200 0001464 12.4052 347.7219 15.19300757447618 GAOFEN-1 02 1 43259U 18031A 26038.31388938 .00001073 00000+0 16172-3 0 9998 2 43259 98.0706 101.0971 0004224 66.4645 293.7007 14.76419864423532 GAOFEN-1 03 1 43260U 18031B 26038.29206108 .00001238 00000+0 18547-3 0 9996 2 43260 98.0701 100.9471 0004109 119.5905 240.5715 14.76443464423521 GAOFEN-1 04 1 43262U 18031D 26038.33551043 .00001778 00000+0 26286-3 0 9992 2 43262 98.0707 101.1659 0001834 110.7367 249.4039 14.76460969423523 SENTINEL-3B 1 43437U 18039A 26038.16885119 .00000155 00000+0 82248-4 0 9998 2 43437 98.6292 107.5373 0000664 78.1083 282.0172 14.26731218405587 GAOFEN-5 01 1 43461U 18043A 26037.89729973 .00000684 00000+0 15123-3 0 9998 2 43461 98.4411 6.8732 0002888 108.3267 251.8246 14.60487791412671 GAOFEN-6 1 43484U 18048A 26038.30164366 .00001383 00000+0 20493-3 0 9997 2 43484 97.7932 105.6446 0011004 232.6312 127.3897 14.76605592414228 GAOFEN-11 01 1 43585U 18063A 26038.30136094 .00021832 00000+0 37402-3 0 9992 2 43585 97.1465 105.8074 0006120 95.9531 264.2420 15.51216319420184 ICESAT-2 1 43613U 18070A 26038.24464280 .00000886 00000+0 32035-4 0 9990 2 43613 92.0005 255.9740 0000435 24.9316 335.1954 15.28253135412613 HYSIS 1 43719U 18096A 26038.28410294 .00002136 00000+0 29846-3 0 9990 2 43719 98.0000 105.9588 0001234 129.2646 230.8675 14.78679209388226 KAZSTSAT 1 43783U 18099AB 26038.32500720 .00002244 00000+0 18696-3 0 9994 2 43783 97.4490 76.0453 0009717 105.3931 254.8367 14.99553694391846 SAUDISAT 5A 1 43831U 18102A 26038.31229314 .00008185 00000+0 31580-3 0 9996 2 43831 97.3252 102.4157 0008795 228.0859 131.9631 15.26514774395858 SAUDISAT 5B 1 43833U 18102C 26038.29036157 .00007657 00000+0 29275-3 0 9997 2 43833 97.3346 105.2328 0009485 231.2369 128.8023 15.26836272395966 GAOFEN-10R 1 44622U 19066A 26038.27061713 .00002440 00000+0 30660-3 0 9993 2 44622 98.0354 351.0302 0006096 198.1274 161.9723 14.83041913343122 CARTOSAT-3 1 44804U 19081A 26038.27380912 .00002837 00000+0 13746-3 0 9993 2 44804 97.4482 102.1122 0012265 246.8304 113.1638 15.19296095343749 GAOFEN-12 01 1 44819U 19082A 26038.30571150 .00000685 00000+0 96501-4 0 9990 2 44819 97.8136 48.1066 0002411 93.9842 266.1646 14.80326844334876 CSG-1 1 44873U 19092A 26038.29609310 .00000828 00000+0 11059-3 0 9992 2 44873 97.8843 223.7765 0001313 88.2271 271.9092 14.82148003332239 NEMO-HD 1 46277U 20061F 26038.25230397 .00014562 00000+0 34586-3 0 9991 2 46277 97.2108 101.6559 0002317 115.5872 244.5615 15.41781625301948 SENTINEL-6A 1 46984U 20086A 26038.32329927 -.00000059 00000+0 80323-5 0 9998 2 46984 66.0412 44.7818 0007895 270.2904 89.7206 12.80929426243696 GAOFEN-12 02 1 48079U 21026A 26038.30294976 .00000349 00000+0 52951-4 0 9999 2 48079 97.9892 37.0508 0003629 305.6677 54.4196 14.80163847262541 PLEIADES NEO 3 1 48268U 21034A 26038.32068181 .00000359 00000+0 52286-4 0 9999 2 48268 97.8934 114.9508 0001329 89.2251 270.9114 14.81679104258426 PLEIADES NEO 4 1 49070U 21073E 26038.28690502 .00000468 00000+0 66132-4 0 9993 2 49070 97.8933 114.9133 0001282 89.8049 270.3311 14.81672403242139 LANDSAT 9 1 49260U 21088A 26038.20571937 .00000567 00000+0 13581-3 0 9991 2 49260 98.2001 110.4736 0001279 91.9051 268.2294 14.57115636232075 CSG-2 1 51444U 22008A 26038.32984398 .00000650 00000+0 88220-4 0 9999 2 51444 97.8833 223.8077 0001418 78.5428 281.5945 14.82164360217352 GAOFEN-12 03 1 52912U 22069A 26038.23695550 .00001416 00000+0 19489-3 0 9997 2 52912 97.8445 289.2769 0001045 115.9286 244.2034 14.79778536195396 SWOT 1 54754U 22173A 26038.22732698 .00000121 00000+0 83614-4 0 9997 2 54754 77.6084 210.7361 0000442 353.1315 6.9830 14.00172619160969 GAOFEN-12 04 1 57654U 23123A 26038.33608947 .00001908 00000+0 25959-3 0 9997 2 57654 97.9134 318.2470 0001661 89.6973 270.4429 14.79910984133426 PARS 1 1 59065U 24039Q 26038.26476218 .00016159 00000+0 37307-3 0 9992 2 59065 97.4712 15.4846 0008617 213.5610 146.5093 15.42582893108593 RESURS-P 4 1 59371U 24061A 26038.32374191 .00005318 00000+0 17110-3 0 9996 2 59371 97.2615 348.5391 0003110 97.5509 262.6087 15.32646866103877 LEGION 1 1 59625U 24081A 26038.26787678 .00006297 00000+0 32020-3 0 9995 2 59625 97.5123 117.4264 0006321 105.5760 254.6172 15.17184682 97845 LEGION 2 1 59626U 24081B 26038.23433824 .00006939 00000+0 35219-3 0 9990 2 59626 97.5126 117.4843 0008291 92.8108 267.4074 15.17203476 97840 ALOS-4 (DAICHI-4) 1 60182U 24123A 26037.83001286 .00003463 00000+0 47030-3 0 9997 2 60182 97.9212 136.8745 0001421 102.0797 258.0574 14.79478210 86601 LEGION 3 1 60452U 24146A 26038.29944776 .00007449 00000+0 39612-3 0 9998 2 60452 45.0023 6.8838 0011837 156.0007 204.1426 15.15803482 82315 LEGION 4 1 60453U 24146B 26038.23244984 .00007038 00000+0 37472-3 0 9993 2 60453 45.0024 99.0957 0012223 287.1116 72.8424 15.15830609 81150 SENTINEL-2C 1 60989U 24157A 26038.17255461 .00000184 00000+0 86793-4 0 9990 2 60989 98.5675 114.8280 0001031 77.8487 282.2812 14.30813499 74394 IONOSFERA-M 1 1 61735U 24199A 26038.30069280 .00000074 00000+0 52783-4 0 9993 2 61735 98.7364 272.7025 0001691 119.8712 240.2634 14.22729316109235 IONOSFERA-M 2 1 61736U 24199B 26038.26491785 .00000078 00000+0 54510-4 0 9992 2 61736 98.7363 272.5788 0001169 39.4089 320.7173 14.22731658112354 BIOMASS 1 63772U 25090A 26038.07475190 .00001834 00000+0 33599-3 0 9990 2 63772 98.0723 227.2625 0001251 88.7785 271.3562 14.66990834 41601 GOSAT-GW (IBUKI GW) 1 64694U 25141A 26038.30462215 .00001419 00000+0 25849-3 0 9999 2 64694 98.0478 337.8076 0001488 83.4810 276.6564 14.67551902 32793 IONOSFERA-M 3 1 64876U 25155A 26038.30704204 .00000127 00000+0 77863-4 0 9992 2 64876 98.5867 3.5965 0000653 175.5465 184.5718 14.21458725 27957 IONOSFERA-M 4 1 64877U 25155B 26038.27166825 .00000133 00000+0 80150-4 0 9990 2 64877 98.5865 3.4809 0000758 121.9656 238.1595 14.21460246 27944 MICROCARB 1 64899U 25156A 26038.20217447 .00000935 00000+0 15612-3 0 9995 2 64899 97.9940 117.6238 0015604 331.7500 28.2860 14.72170459 28847 CO3D 3 1 64900U 25156B 26038.25345462 .00001835 00000+0 87850-4 0 9996 2 64900 97.4335 118.8105 0000599 274.6277 85.4890 15.20201764 29793 CO3D 4 1 64901U 25156C 26038.25360774 .00005937 00000+0 27707-3 0 9991 2 64901 97.4329 118.8108 0001278 33.4511 326.6805 15.20211231 29793 CO3D 2 1 64902U 25156D 26038.28608671 .00007075 00000+0 32959-3 0 9996 2 64902 97.4329 118.7415 0000333 196.4133 163.7091 15.20205512 29797 CO3D 1 1 64903U 25156E 26038.28624106 .00007508 00000+0 34962-3 0 9995 2 64903 97.4330 118.7417 0000136 244.6709 115.4512 15.20198919 29792 SENTINEL-6B 1 66514U 25264A 26038.32364746 -.00000060 00000+0 27987-5 0 9999 2 66514 66.0413 44.9071 0008061 270.5435 89.4657 12.80930391 10534 CSG-3 1 67304U 26001A 26038.30877024 .00000635 00000+0 86302-4 0 9995 2 67304 97.8838 223.7888 0001257 90.1350 270.0007 14.82159926 5228